This demonstration page uses our WeatherBlox Daily Observations layout. Learn more.

Hourly Observations for December 17, 2018

Temp ( °F °C ) Dew Point ( °F °C ) Humidity (%) Winds ( mph kmh ) Pressure ( in mb ) Visibility ( mi km ) Precip ( " mm )
12:15 am 00:15 Cloudy 41 5 39 4 93 93 Calm 29.94 1014 10 16.09344 0 0
12:55 am 00:55 Cloudy 39 4 39 4 100 100 NW 3 6 29.94 1014 10 16.09344 0 0
1:15 am 01:15 Cloudy 41 5 39 4 93 93 NNW 6 9 29.94 1014 10 16.09344 0 0
1:35 am 01:35 Cloudy 43 6 39 4 87 87 NW 7 11 29.94 1014 10 16.09344 0 0
1:55 am 01:55 Mostly Cloudy 43 6 37 3 81 81 NNW 6 9 29.94 1014 10 16.09344 0 0
2:15 am 02:15 Partly Cloudy 41 5 37 3 87 87 Calm 29.94 1014 10 16.09344 0 0
2:35 am 02:35 Mostly Cloudy 37 3 37 3 100 100 NW 6 9 29.94 1014 10 16.09344 0 0
2:55 am 02:55 Partly Cloudy 39 4 37 3 93 93 NW 7 11 29.94 1014 10 16.09344 0 0
3:15 am 03:15 Clear 39 4 37 3 93 93 NW 3 6 29.94 1014 10 16.09344 0 0
3:35 am 03:35 Clear 41 5 37 3 87 87 NW 3 6 29.94 1014 10 16.09344 0 0
3:55 am 03:55 Clear 39 4 36 2 87 87 NW 10 17 29.94 1014 10 16.09344 0 0
4:15 am 04:15 Clear 41 5 37 3 87 87 WNW 10 17 29.91 1013 10 16.09344 0 0
4:35 am 04:35 Clear 43 6 37 3 81 81 WNW 13 20 29.91 1013 10 16.09344 0 0
4:55 am 04:55 Clear 43 6 36 2 76 76 WNW 16 26 29.91 1013 10 16.09344 0 0
5:15 am 05:15 Clear 43 6 37 3 81 81 WNW 16 26 29.91 1013 10 16.09344 0 0
5:35 am 05:35 Clear 43 6 36 2 76 76 NW 15 24 29.91 1013 10 16.09344 0 0
5:55 am 05:55 Clear 45 7 36 2 71 71 WNW 18 30 29.94 1014 10 16.09344 0 0
6:15 am 06:15 Clear 43 6 36 2 76 76 NW 12 19 29.94 1014 10 16.09344 0 0
6:35 am 06:35 Clear 43 6 34 1 71 71 WNW 15 24 29.94 1014 10 16.09344 0 0
6:55 am 06:55 Clear 43 6 34 1 71 71 NW 16 26 29.94 1014 10 16.09344 0 0
7:15 am 07:15 Clear 43 6 34 1 71 71 NW 16 26 29.94 1014 10 16.09344 0 0
7:35 am 07:35 Sunny 43 6 34 1 71 71 WNW 14 22 29.94 1014 10 16.09344 0 0
7:55 am 07:55 Sunny 43 6 34 1 71 71 W 8 13 29.94 1014 10 16.09344 0 0
8:15 am 08:15 Sunny 43 6 34 1 71 71 WNW 14 22 29.94 1014 10 16.09344 0 0
8:35 am 08:35 Sunny 45 7 36 2 71 71 NW 9 15 29.94 1014 10 16.09344 0 0
8:55 am 08:55 Sunny 46 8 36 2 66 66 Calm 29.94 1014 10 16.09344 0 0
9:15 am 09:15 Sunny 45 7 36 2 71 71 WNW 6 9 29.94 1014 10 16.09344 0 0
9:35 am 09:35 Sunny 45 7 36 2 71 71 W 3 6 29.94 1014 10 16.09344 0 0
9:55 am 09:55 Sunny 46 8 36 2 66 66 W 5 7 29.94 1014 10 16.09344 0 0
10:15 am 10:15 Sunny 46 8 36 2 66 66 Calm 29.94 1014 10 16.09344 0 0
10:35 am 10:35 Sunny 48 9 36 2 62 62 WSW 5 7 29.88 1012 10 16.09344 0 0
10:55 am 10:55 Sunny 48 9 36 2 62 62 W 7 11 29.88 1012 10 16.09344 0 0
11:15 am 11:15 Sunny 50 10 36 2 58 58 W 12 19 29.88 1012 10 16.09344 0 0
11:35 am 11:35 Sunny 52 11 36 2 54 54 W 9 15 29.85 1011 10 16.09344 0 0
11:55 am 11:55 Sunny 52 11 36 2 54 54 WSW 10 17 29.85 1011 10 16.09344 0 0
12:15 pm 12:15 Sunny 52 11 36 2 54 54 WSW 5 7 29.85 1011 10 16.09344 0 0
12:35 pm 12:35 Sunny 54 12 37 3 54 54 W 7 11 29.83 1010 10 16.09344 0 0
12:55 pm 12:55 Sunny 55 13 36 2 47 47 NW 15 24 29.83 1010 10 16.09344 0 0
1:15 pm 13:15 Sunny 55 13 34 1 44 44 WNW 20 31 29.83 1010 10 16.09344 0 0
1:35 pm 13:35 Sunny 54 12 34 1 47 47 WNW 28 44 29.83 1010 10 16.09344 0 0
1:55 pm 13:55 Sunny 54 12 32 0 44 44 NW 24 39 29.83 1010 10 16.09344 0 0
2:15 pm 14:15 Sunny 54 12 32 0 44 44 NW 17 28 29.83 1010 10 16.09344 0 0
2:35 pm 14:35 Sunny 54 12 32 0 44 44 WNW 15 24 29.83 1010 10 16.09344 0 0
2:55 pm 14:55 Sunny 54 12 32 0 44 44 NW 13 20 29.83 1010 10 16.09344 0 0
3:15 pm 15:15 Sunny 54 12 32 0 44 44 NW 9 15 29.83 1010 10 16.09344 0 0
3:35 pm 15:35 Sunny 54 12 32 0 44 44 NW 14 22 29.83 1010 10 16.09344 0 0
3:55 pm 15:55 Sunny 54 12 30 -1 41 41 NW 15 24 29.85 1011 10 16.09344 0 0
4:15 pm 16:15 Sunny 52 11 30 -1 44 44 NNW 14 22 29.85 1011 10 16.09344 0 0
4:35 pm 16:35 Sunny 50 10 30 -1 47 47 NNW 14 22 29.88 1012 10 16.09344 0 0
4:55 pm 16:55 Clear 50 10 30 -1 47 47 N 9 15 29.88 1012 10 16.09344 0 0
5:15 pm 17:15 Clear 48 9 30 -1 50 50 N 6 9 29.91 1013 10 16.09344 0 0
5:35 pm 17:35 Clear 46 8 30 -1 53 53 N 7 11 29.94 1014 10 16.09344 0 0
5:55 pm 17:55 Clear 46 8 30 -1 53 53 NNW 12 19 29.94 1014 10 16.09344 0 0
6:15 pm 18:15 Clear 46 8 30 -1 53 53 N 13 20 29.97 1015 10 16.09344 0 0
6:35 pm 18:35 Clear 45 7 30 -1 57 57 N 12 19 29.97 1015 10 16.09344 0 0
6:55 pm 18:55 Clear 43 6 32 0 66 66 N 12 19 29.97 1015 10 16.09344 0 0
7:15 pm 19:15 Clear 43 6 32 0 66 66 N 12 19 29.97 1015 10 16.09344 0 0
7:35 pm 19:35 Clear 43 6 32 0 66 66 N 8 13 29.97 1015 10 16.09344 0 0
7:55 pm 19:55 Clear 43 6 32 0 66 66 N 7 11 30 1016 10 16.09344 0 0
8:15 pm 20:15 Partly Cloudy 43 6 32 0 66 66 NNW 10 17 30 1016 10 16.09344 0 0
8:35 pm 20:35 Partly Cloudy 43 6 32 0 66 66 N 8 13 30 1016 10 16.09344 0 0
9:15 pm 21:15 Mostly Cloudy 43 6 32 0 66 66 N 9 15 30 1016 10 16.09344 0 0
9:35 pm 21:35 Mostly Cloudy 43 6 32 0 66 66 N 10 17 30 1016 10 16.09344 0 0
9:55 pm 21:55 Cloudy 43 6 32 0 66 66 N 13 20 30 1016 10 16.09344 0 0
10:15 pm 22:15 Cloudy 43 6 30 -1 61 61 N 12 19 30.03 1017 10 16.09344 0 0
10:35 pm 22:35 Cloudy 41 5 30 -1 66 66 N 12 19 30.03 1017 10 16.09344 0 0
10:55 pm 22:55 Cloudy 41 5 30 -1 66 66 NNW 10 17 30.03 1017 10 16.09344 0 0
11:15 pm 23:15 Cloudy 41 5 30 -1 66 66 N 10 17 30.03 1017 10 16.09344 0 0
11:35 pm 23:35 Cloudy 41 5 30 -1 66 66 N 10 17 30.03 1017 10 16.09344 0 0
11:55 pm 23:55 Cloudy 41 5 30 -1 66 66 N 13 20 30.03 1017 10 16.09344 0 0

Powered by AerisWeather